Volver al catálogo

STARLINK-36551

ActivoComunicacionesVLEO
NORAD 67493·PAYLOAD·🇺🇸 United States

Lanzado Jan 18, 2026 desde Cape Canaveral Space Force Station

Loading…

Próximos Pases (próximas 24 horas)

TLE

ActualizadoSource: CelesTrak SupGP

Época: Sep 15, 2026, 02:50 UTC

1 67493C 26012A   26258.11854167  .00036695  00000+0  13289-2 0  2587
2 67493  43.0014 324.9901 0001374 262.2737 262.6982 15.27565787    14

Sigue STARLINK-36551 en tiempo real con AllMySat

Download on the App Store